Location: Cahoon Acres
(40.8736°N, 111.8994°W)
Time: 09:21:51
(UTC+00:00)

SR - Pass Details

Date: 13 June 2020
Orbit: 583 x 872 km, 66.7° (Epoch: 03 July)

Event Time Altitude Azimuth Distance (km) Brightness Sun altitude
Rises 17:47:03 0° 169° (S) 3,286 ? 62.5°
Reaches altitude 10° 17:50:10 10° 152° (SSE) 2,307 ? 63.0°
Maximum altitude 17:53:47 19° 108° (ESE) 1,711 ? 63.6°
Drops below altitude 10° 17:57:14 10° 64° (ENE) 2,183 ? 64.1°
Sets 18:00:04 0° 47° (NE) 3,049 ? 64.5°
